Location: Champs
(48.8539°N, 2.6040°E)
Time: 01:11:14
(UTC+00:00)

USA 308 - Pass Details

Date: 04 June 2022
Orbit: 549 x 558 km, 54.0° (Epoch: 14 June)

Event Time Altitude Azimuth Distance (km) Brightness Sun altitude
Rises 00:01:01 0° 272° (W) 2,731 6.4 -18.7°
Reaches altitude 10° 00:03:21 10° 280° (W) 1,839 5.5 -18.7°
Maximum altitude 00:07:20 42° 352° (N) 797 4.1 -18.6°
Drops below altitude 10° 00:11:21 10° 65° (ENE) 1,847 5.9 -18.5°
Sets 00:13:41 0° 72° (ENE) 2,745 6.7 -18.5°
